This is the latest recevied weather packets stored in our database for station/object MB7UUE. If no packets are shown the sender has not sent any weather packets the latest 10 day(s).
| Time | Temp. | Humidity | Pressure | Rain* | Wind** | Luminosity | Snow |
|---|---|---|---|---|---|---|---|
| 1787901777 | 17.78° C | 82% | 1005.6 hPa | 0 mm | - | - | - |
| 1787900647 | 17.22° C | 84% | 1005.6 hPa | 0 mm | - | - | - |
| 1787900637 | 17.22° C | 84% | 1005.6 hPa | 0 mm | - | - | - |
| 1787899506 | 16.67° C | 86% | 1005.7 hPa | 0 mm | - | - | - |
| 1787899498 | 16.67° C | 86% | 1005.7 hPa | 0 mm | - | - | - |
| 1787898367 | 16.11° C | 88% | 1005.5 hPa | 0 mm | - | - | - |
| 1787898357 | 16.11° C | 88% | 1005.5 hPa | 0 mm | - | - | - |
| 1787897227 | 16.11° C | 88% | 1005.6 hPa | 0 mm | - | - | - |
| 1787897217 | 16.11° C | 88% | 1005.6 hPa | 0 mm | - | - | - |
| 1787896087 | 15.56° C | 88% | 1005.9 hPa | 0 mm | - | - | - |
| 1787896077 | 15.56° C | 88% | 1005.9 hPa | 0 mm | - | - | - |
| 1787894946 | 15.56° C | 87% | 1005.7 hPa | 0 mm | - | - | - |
| 1787894938 | 15.56° C | 87% | 1005.6 hPa | 0 mm | - | - | - |
| 1787893807 | 16.11° C | 87% | 1006 hPa | 0 mm | - | - | - |
| 1787893797 | 16.11° C | 87% | 1006 hPa | 0 mm | - | - | - |
| 1787892667 | 16.11° C | 86% | 1005.9 hPa | 0 mm | - | - | - |
| 1787892657 | 16.11° C | 86% | 1005.9 hPa | 0 mm | - | - | - |
| 1787891527 | 16.11° C | 85% | 1006 hPa | 0 mm | - | - | - |
| 1787891518 | 16.11° C | 85% | 1006 hPa | 0 mm | - | - | - |
| 1787890386 | 16.11° C | 85% | 1006.1 hPa | 0 mm | - | - | - |
| 1787890378 | 16.11° C | 85% | 1006.1 hPa | 0 mm | - | - | - |
| 1787889247 | 16.67° C | 82% | 1006.1 hPa | 0 mm | - | - | - |
| 1787889239 | 16.67° C | 82% | 1006.1 hPa | 0 mm | - | - | - |
| 1787888107 | 16.67° C | 81% | 1006.2 hPa | 0 mm | - | - | - |
| 1787888097 | 16.67° C | 81% | 1006.2 hPa | 0 mm | - | - | - |
* Rain latest hour (hover to see other rain measurements)
** Current wind speed in m/s (hover to see current wind gust speed)